Flag Weather past 2 weeks in Kuching, Malaysia

Now
77 °F

Light rain. Broken clouds.


Feels Like: 78 °F
Forecast: 76 / 88 °F
Wind: 5 mph from Southeast

Location: Kuching Airport

Current Time: Nov 1, 2014 at 9:16:12 AM

Latest Report: Nov 1, 2014 at 8:30 AM


Visibility: N/A

Pressure: 29.83 "Hg

Humidity: 94%

Dew point: 75 °F

Location of KuchingLocation

Historic Weather in Kuching — Graph

°F

Kuching temperature yesterday

Maximum temperature yesterday: 93 °F (at 12:30 PM)
Minimum temperature yesterday: 75 °F (at 3:00 AM)
Average temperature yesterday: 82 °F

Past Weeks' High & Low Weather Summary

 TemperatureHumidityPressure
High93 °F (Oct 31, 12:30 PM)100% (Oct 30, 3:00 AM)29.92 "Hg (Oct 30, 3:00 AM)
Low73 °F (Oct 18, 5:30 AM)52% (Oct 25, 2:00 PM)29.68 "Hg (Oct 17, 4:30 PM)
Average80 °F84%29.83 "Hg
* Reported Oct 17 8:00 AM — Nov 1 8:00 AM, Kuching, Weather by CustomWeather, © 2014

Note: Actual official high and low records may vary slightly from our data, if they occured in-between our weather recording intervals... More about our weather records

Advertising

Kuching weather history for previous 24 hours

 ConditionsComfort  
Time TempWeatherWind HumidityBarometerVisibility
8:00 AM
Nov 1
77 °FLight rain. Broken clouds.6 mph94%29.83 "HgN/A
7:30 AM77 °FLight rain. Broken clouds.1 mph94%29.80 "HgN/A
7:00 AM77 °FLight rain. Broken clouds.2 mph89%29.80 "HgN/A
6:30 AM77 °FLight rain. Partly sunny.No wind89%29.77 "HgN/A
6:00 AM77 °FLight rain. Partly cloudy.No wind89%29.77 "Hg4 mi
5:30 AM77 °FLight rain. Partly cloudy.3 mph89%29.80 "Hg4 mi
5:00 AM77 °FPartly cloudy.5 mph89%29.80 "Hg5 mi
4:30 AM77 °FPartly cloudy.5 mph89%29.77 "Hg5 mi
4:00 AM77 °FPartly cloudy.5 mph89%29.77 "Hg5 mi
3:30 AM77 °FPartly cloudy.3 mph89%29.77 "Hg5 mi
3:00 AM79 °FThunderstorms. Partly cloudy.6 mph84%29.77 "Hg5 mi
2:30 AM79 °FThunderstorms. Partly cloudy.8 mph89%29.77 "Hg5 mi
2:00 AM79 °FThunderstorms. Partly cloudy.6 mph89%29.77 "HgN/A
1:30 AM79 °FPartly cloudy.5 mph89%29.77 "HgN/A
1:00 AM79 °FPartly cloudy.6 mph89%29.77 "HgN/A
12:30 AM79 °FPartly cloudy.6 mph89%29.80 "HgN/A
12:00 AM79 °FPartly cloudy.7 mph89%29.80 "HgN/A
11:30 PM
Oct 31
79 °FPartly cloudy.2 mph89%29.80 "HgN/A
11:00 PM79 °FPartly cloudy.3 mph89%29.80 "HgN/A
10:30 PM79 °FPartly cloudy.7 mph89%29.83 "HgN/A
10:00 PM79 °FPartly cloudy.6 mph89%29.80 "HgN/A
9:30 PM79 °FPartly cloudy.1 mph89%29.80 "HgN/A
9:00 PM79 °FPartly cloudy.3 mph89%29.80 "HgN/A
8:30 PM79 °FPartly cloudy.3 mph89%29.77 "HgN/A
8:00 PM81 °FPartly cloudy.5 mph84%29.77 "HgN/A
7:30 PM82 °FPartly cloudy.3 mph84%29.77 "HgN/A
7:00 PM84 °FPartly cloudy.5 mph74%29.74 "HgN/A
6:30 PM84 °FPartly cloudy.3 mph79%29.71 "HgN/A
6:00 PM84 °FBroken clouds.5 mph79%29.71 "HgN/A
5:30 PM86 °FBroken clouds.6 mph70%29.68 "HgN/A
5:00 PM86 °FBroken clouds.7 mph70%29.68 "HgN/A
4:30 PM86 °FBroken clouds.7 mph70%29.68 "HgN/A
4:00 PM86 °FSprinkles. Broken clouds.6 mph75%29.68 "HgN/A
3:30 PM88 °FSprinkles. Broken clouds.8 mph70%29.68 "HgN/A
3:00 PM91 °FBroken clouds.8 mph67%29.68 "HgN/A
2:30 PM88 °FBroken clouds.9 mph70%29.71 "HgN/A
2:00 PM90 °FBroken clouds.9 mph67%29.71 "HgN/A
1:30 PM90 °FBroken clouds.10 mph71%29.74 "HgN/A
1:00 PM91 °FBroken clouds.3 mph63%29.74 "HgN/A
12:30 PM93 °FBroken clouds.3 mph63%29.77 "HgN/A
12:00 PM91 °FBroken clouds.3 mph63%29.77 "HgN/A
11:30 AM91 °FBroken clouds.2 mph63%29.80 "HgN/A
11:00 AM90 °FBroken clouds.2 mph63%29.80 "HgN/A
10:30 AM88 °FBroken clouds.2 mph70%29.80 "HgN/A
10:00 AM88 °FBroken clouds.1 mph70%29.83 "HgN/A
9:30 AM86 °FBroken clouds.2 mph75%29.83 "HgN/A
9:00 AM84 °FPartly sunny.3 mph79%29.83 "HgN/A
Weather by CustomWeather, © 2014

See weather overviewHow to use our weather pages